Radiation Dose at Monitoring Post of Fukushima Daini Nuclear Power Station
Date,Time,MP-1(microSv/h),MP-2(microSv/h),MP-3(microSv/h),MP-4(microSv/h),MP-5(microSv/h),MP-6(microSv/h),MP-7(microSv/h),Wind Direction,Wind Velocity(m/s),Rain
2016/11/25,00:00,0.394,0.229,0.404,0.371,0.355,0.190,0.163,north-northwest,5.9,No
2016/11/25,00:10,0.393,0.230,0.404,0.367,0.355,0.190,0.163,north-northwest,5.9,No
2016/11/25,00:20,0.394,0.231,0.404,0.367,0.356,0.189,0.162,north,6.9,No
2016/11/25,00:30,0.395,0.230,0.404,0.368,0.355,0.190,0.162,north,6.3,No
2016/11/25,00:40,0.394,0.231,0.405,0.368,0.355,0.190,0.162,north,7.2,No
2016/11/25,00:50,0.393,0.230,0.403,0.369,0.356,0.189,0.162,north,5.5,No
2016/11/25,01:00,0.394,0.232,0.403,0.368,0.355,0.189,0.162,north-northwest,5.5,No
2016/11/25,01:10,0.393,0.230,0.403,0.367,0.355,0.190,0.162,north-northwest,6.4,No
2016/11/25,01:20,0.395,0.230,0.404,0.368,0.355,0.190,0.162,north-northwest,5.8,No
2016/11/25,01:30,0.395,0.229,0.404,0.368,0.355,0.191,0.163,north-northwest,5.1,No
2016/11/25,01:40,0.393,0.231,0.404,0.369,0.355,0.190,0.163,north-northwest,4.2,No
2016/11/25,01:50,0.394,0.230,0.403,0.368,0.355,0.190,0.163,north-northwest,3.3,No
2016/11/25,02:00,0.393,0.231,0.402,0.368,0.355,0.189,0.162,west-northwest,3.1,No
2016/11/25,02:10,0.395,0.231,0.403,0.368,0.355,0.190,0.162,west-northwest,2.5,No
2016/11/25,02:20,0.393,0.230,0.403,0.368,0.356,0.189,0.163,northwest,2.9,No
2016/11/25,02:30,0.394,0.230,0.402,0.369,0.356,0.190,0.163,northwest,2.8,No
2016/11/25,02:40,0.393,0.230,0.404,0.368,0.355,0.189,0.162,north,1.4,No
2016/11/25,02:50,0.395,0.232,0.404,0.368,0.356,0.189,0.162,north-northwest,3.1,No
2016/11/25,03:00,0.394,0.229,0.403,0.367,0.355,0.190,0.162,northwest,3.5,No
2016/11/25,03:10,0.394,0.230,0.404,0.369,0.354,0.190,0.162,north-northwest,3.7,No
2016/11/25,03:20,0.393,0.229,0.403,0.366,0.355,0.190,0.162,north-northwest,4.2,No
2016/11/25,03:30,0.394,0.229,0.403,0.369,0.354,0.190,0.161,north-northwest,3.6,No
2016/11/25,03:40,0.392,0.230,0.403,0.368,0.355,0.190,0.163,north-northwest,4.5,No
2016/11/25,03:50,0.394,0.230,0.403,0.369,0.354,0.189,0.163,north-northwest,4.7,No
2016/11/25,04:00,0.393,0.229,0.404,0.368,0.355,0.190,0.162,north-northwest,4.9,No
2016/11/25,04:10,0.395,0.230,0.403,0.369,0.356,0.191,0.163,north-northwest,5.0,No
2016/11/25,04:20,0.393,0.231,0.403,0.367,0.356,0.189,0.162,north-northwest,5.3,No
2016/11/25,04:30,0.393,0.230,0.404,0.368,0.355,0.190,0.162,north-northwest,5.6,No
2016/11/25,04:40,0.395,0.229,0.404,0.366,0.354,0.190,0.163,north-northwest,5.8,No
2016/11/25,04:50,0.394,0.230,0.404,0.368,0.354,0.190,0.162,north-northwest,5.1,No
2016/11/25,05:00,0.393,0.229,0.404,0.368,0.354,0.190,0.163,north-northwest,4.7,No
2016/11/25,05:10,0.393,0.230,0.404,0.369,0.355,0.189,0.162,north,4.3,No
2016/11/25,05:20,0.394,0.229,0.404,0.367,0.355,0.189,0.162,north,3.9,No
2016/11/25,05:30,0.394,0.229,0.405,0.367,0.355,0.190,0.162,north,1.6,No
2016/11/25,05:40,0.395,0.229,0.402,0.368,0.355,0.190,0.161,north-northwest,1.1,No
2016/11/25,05:50,0.394,0.229,0.404,0.368,0.355,0.190,0.162,northeast,0.7,No
2016/11/25,06:00,0.393,0.229,0.403,0.367,0.355,0.190,0.163,north,1.4,No
2016/11/25,06:10,0.393,0.230,0.403,0.368,0.356,0.190,0.161,north,1.2,No
2016/11/25,06:20,0.394,0.230,0.403,0.368,0.356,0.190,0.163,north,0.8,No
2016/11/25,06:30,0.396,0.230,0.403,0.368,0.355,0.189,0.162,west-northwest,1.0,No
2016/11/25,06:40,0.393,0.230,0.405,0.368,0.355,0.190,0.162,west-southwest,0.8,No
2016/11/25,06:50,0.393,0.230,0.405,0.368,0.354,0.190,0.162,southwest,2.0,No
2016/11/25,07:00,0.393,0.230,0.404,0.368,0.356,0.190,0.162,southwest,2.2,No
2016/11/25,07:10,0.392,0.230,0.403,0.367,0.355,0.189,0.162,southwest,2.9,No
2016/11/25,07:20,0.394,0.230,0.404,0.368,0.354,0.191,0.161,west-southwest,3.3,No
2016/11/25,07:30,0.394,0.230,0.403,0.367,0.354,0.190,0.162,southwest,3.8,No
2016/11/25,07:40,0.394,0.229,0.403,0.367,0.355,0.189,0.163,southwest,3.8,No
2016/11/25,07:50,0.393,0.231,0.403,0.365,0.355,0.188,0.161,southwest,3.2,No
2016/11/25,08:00,0.393,0.229,0.403,0.367,0.355,0.191,0.162,southwest,3.1,No
2016/11/25,08:10,0.395,0.230,0.403,0.367,0.353,0.190,0.162,southwest,2.1,No
2016/11/25,08:20,0.393,0.230,0.405,0.367,0.355,0.190,0.162,southwest,1.4,No
2016/11/25,08:30,0.392,0.230,0.405,0.367,0.356,0.189,0.162,southwest,2.2,No
2016/11/25,08:40,0.394,0.230,0.402,0.368,0.355,0.189,0.162,southwest,3.1,No
2016/11/25,08:50,0.393,0.229,0.403,0.366,0.355,0.189,0.162,southwest,2.5,No
2016/11/25,09:00,0.393,0.229,0.404,0.367,0.354,0.190,0.162,southwest,2.2,No
2016/11/25,09:10,0.391,0.230,0.404,0.368,0.356,0.189,0.162,southwest,3.1,No
2016/11/25,09:20,0.394,0.229,0.402,0.367,0.356,0.190,0.163,southwest,4.5,No
2016/11/25,09:30,0.394,0.229,0.404,0.367,0.356,0.189,0.162,southwest,3.7,No
2016/11/25,09:40,0.391,0.229,0.404,0.368,0.356,0.189,0.163,south-southwest,2.8,No
2016/11/25,09:50,0.392,0.229,0.403,0.366,0.356,0.190,0.162,south-southwest,3.5,No
2016/11/25,10:00,0.392,0.229,0.397,0.369,0.357,0.191,0.163,south,3.5,No
2016/11/25,10:10,0.391,0.229,-,0.369,0.355,0.191,0.162,south-southeast,4.5,No
2016/11/25,10:20,0.392,0.230,-,0.366,0.356,0.191,0.163,south-southeast,4.2,No
2016/11/25,10:30,0.390,0.230,-,0.370,0.356,0.190,0.163,south,5.7,No
2016/11/25,10:40,0.392,0.229,-,0.367,0.352,0.191,0.163,south,6.7,No
2016/11/25,10:50,0.390,0.230,-,0.370,0.355,0.192,0.163,south,7.1,No
2016/11/25,11:00,0.394,0.230,-,0.368,0.355,0.191,0.164,south,6.5,No
2016/11/25,11:10,0.391,0.230,-,0.370,0.354,0.191,0.164,south,4.8,No
2016/11/25,11:20,0.395,0.229,-,0.371,0.356,0.191,0.163,south,6.5,No
2016/11/25,11:30,0.391,0.230,-,0.368,0.354,0.190,0.163,south-southwest,6.3,No
2016/11/25,11:40,0.391,0.231,-,0.370,0.357,0.192,0.163,south,6.6,No
2016/11/25,11:50,0.391,0.230,-,0.367,0.354,0.190,0.163,south,6.4,No
2016/11/25,12:00,0.394,0.230,-,0.370,0.357,0.192,0.165,south,6.2,No
2016/11/25,12:10,0.394,0.230,-,0.367,0.354,0.192,0.164,south,6.4,No
2016/11/25,12:20,0.394,0.231,-,0.371,0.358,0.190,0.163,south,6.8,No
2016/11/25,12:30,0.396,0.230,-,0.371,0.357,0.191,0.164,south,5.8,No
2016/11/25,12:40,0.394,0.232,-,0.371,0.358,0.192,0.165,south,4.2,No
2016/11/25,12:50,0.396,0.231,-,0.372,0.358,0.191,0.164,south,5.5,No
2016/11/25,13:00,0.394,0.231,-,0.371,0.356,0.193,0.165,south,6.0,No
2016/11/25,13:10,0.394,0.230,-,0.372,0.356,0.191,0.164,south,6.7,No
2016/11/25,13:20,0.395,0.231,-,0.372,0.360,0.191,0.165,south,5.7,No
2016/11/25,13:30,0.391,0.231,-,0.370,0.357,0.192,0.165,south,3.9,No
2016/11/25,13:40,0.394,0.231,-,0.372,0.358,0.192,0.164,south,6.4,No
2016/11/25,13:50,0.394,0.231,-,0.369,0.358,0.192,0.165,south-southwest,5.2,No
2016/11/25,14:00,0.393,0.231,-,0.372,0.356,0.192,0.165,south-southwest,3.3,No
2016/11/25,14:10,0.395,0.231,-,0.372,0.357,0.191,0.165,southwest,1.7,No
2016/11/25,14:20,0.394,0.231,-,0.370,0.356,0.192,0.163,south-southwest,2.6,No
2016/11/25,14:30,0.394,0.229,-,0.372,0.357,0.192,0.166,south-southwest,2.5,No
2016/11/25,14:40,0.395,0.230,-,0.369,0.356,0.192,0.164,southwest,2.5,No
2016/11/25,14:50,0.395,0.230,-,0.372,0.356,0.191,0.165,south-southwest,3.1,No
2016/11/25,15:00,0.394,0.231,-,0.370,0.357,0.193,0.164,south-southwest,2.6,No
2016/11/25,15:10,0.394,0.232,0.392,0.371,0.356,0.192,0.165,southwest,1.7,No
2016/11/25,15:20,0.394,0.232,0.394,0.372,0.355,0.192,0.166,south-southwest,1.3,No
2016/11/25,15:30,0.394,0.230,0.395,0.369,0.360,0.193,0.164,south-southwest,1.5,No
2016/11/25,15:40,0.397,0.232,0.392,0.371,0.357,0.192,0.164,west-southwest,2.0,No
2016/11/25,15:50,0.393,0.232,0.396,0.372,0.359,0.192,0.165,west-northwest,1.3,No
2016/11/25,16:00,0.397,0.231,0.395,0.371,0.359,0.193,0.166,west,0.9,No
2016/11/25,16:10,0.394,0.232,0.395,0.373,0.356,0.191,0.165,west-northwest,1.4,No
2016/11/25,16:20,0.396,0.231,0.396,0.370,0.361,0.193,0.166,west,1.4,No
2016/11/25,16:30,0.396,0.232,0.394,0.372,0.357,0.193,0.166,west,1.3,No
2016/11/25,16:40,0.395,0.232,0.396,0.372,0.358,0.192,0.166,southwest,3.1,No
2016/11/25,16:50,0.395,0.232,0.397,0.373,0.360,0.192,0.165,south-southwest,2.9,No
2016/11/25,17:00,0.397,0.231,0.397,0.372,0.358,0.192,0.166,southwest,3.9,No
2016/11/25,17:10,0.394,0.230,0.395,0.372,0.359,0.192,0.165,southwest,4.2,No
2016/11/25,17:20,0.395,0.233,0.396,0.371,0.360,0.193,0.165,southwest,4.1,No
2016/11/25,17:30,0.396,0.232,0.395,0.371,0.358,0.192,0.166,southwest,5.0,No
2016/11/25,17:40,0.394,0.232,0.396,0.373,0.357,0.194,0.165,west-southwest,4.4,No
2016/11/25,17:50,0.396,0.232,0.398,0.372,0.359,0.192,0.165,west-southwest,3.9,No
2016/11/25,18:00,0.393,0.232,0.396,0.373,0.357,0.193,0.166,southwest,2.7,No
2016/11/25,18:10,0.395,0.232,0.395,0.373,0.359,0.193,0.164,southwest,2.0,No
2016/11/25,18:20,0.395,0.231,0.397,0.371,0.358,0.193,0.166,west-northwest,0.8,No
2016/11/25,18:30,0.395,0.231,0.395,0.372,0.358,0.192,0.166,west,2.0,No
2016/11/25,18:40,0.395,0.232,0.397,0.373,0.358,0.193,0.165,west,3.1,No
2016/11/25,18:50,0.396,0.231,0.397,0.370,0.360,0.192,0.165,west,2.4,No
2016/11/25,19:00,0.396,0.232,0.394,0.371,0.358,0.193,0.165,west,2.0,No
2016/11/25,19:10,0.394,0.232,0.396,0.372,0.357,0.192,0.167,west-northwest,1.4,No
2016/11/25,19:20,0.396,0.232,0.396,0.371,0.360,0.193,0.166,north,2.2,No
2016/11/25,19:30,0.396,0.232,0.394,0.372,0.357,0.193,0.166,north-northeast,3.1,No
2016/11/25,19:40,0.394,0.231,0.395,0.373,0.357,0.192,0.166,north-northeast,3.7,No
2016/11/25,19:50,0.396,0.231,0.397,0.373,0.358,0.193,0.165,north,5.3,No
2016/11/25,20:00,0.397,0.231,0.396,0.373,0.357,0.193,0.166,north,6.4,No
2016/11/25,20:10,0.395,0.232,0.397,0.375,0.358,0.193,0.165,north,7.5,No
2016/11/25,20:20,0.397,0.231,0.397,0.372,0.361,0.194,0.165,north,8.5,No
2016/11/25,20:30,0.398,0.232,0.395,0.373,0.359,0.193,0.166,north,9.1,No
2016/11/25,20:40,0.397,0.232,0.396,0.374,0.359,0.194,0.167,north,9.0,No
2016/11/25,20:50,0.397,0.233,0.399,0.373,0.359,0.194,0.167,north,8.7,No
2016/11/25,21:00,0.398,0.233,0.396,0.373,0.359,0.194,0.166,north-northwest,8.8,No
2016/11/25,21:10,0.396,0.234,0.397,0.375,0.360,0.193,0.166,north,8.6,No
2016/11/25,21:20,0.395,0.232,0.398,0.373,0.360,0.194,0.167,north,10.1,No
2016/11/25,21:30,0.397,0.232,0.398,0.373,0.358,0.194,0.167,north,9.8,No
2016/11/25,21:40,0.397,0.233,0.396,0.374,0.360,0.194,0.166,north,10.4,No
2016/11/25,21:50,0.396,0.233,0.397,0.373,0.358,0.194,0.166,north,9.7,No
2016/11/25,22:00,0.396,0.232,0.398,0.372,0.360,0.194,0.166,north,8.8,No
2016/11/25,22:10,0.398,0.233,0.397,0.374,0.360,0.192,0.167,north,8.4,No
2016/11/25,22:20,0.397,0.233,0.397,0.374,0.361,0.192,0.167,north,7.4,No
2016/11/25,22:30,0.395,0.232,0.399,0.373,0.359,0.195,0.167,north,9.9,No
2016/11/25,22:40,0.396,0.234,0.398,0.375,0.358,0.195,0.166,north,10.4,No
2016/11/25,22:50,0.397,0.233,0.396,0.374,0.360,0.193,0.166,north,10.7,No
2016/11/25,23:00,0.396,0.232,0.397,0.373,0.359,0.194,0.167,north,8.7,No
2016/11/25,23:10,0.398,0.232,0.399,0.374,0.358,0.193,0.167,north,8.7,No
2016/11/25,23:20,0.397,0.232,0.396,0.376,0.359,0.194,0.166,north,9.0,No
2016/11/25,23:30,0.396,0.233,0.398,0.374,0.359,0.194,0.167,north,8.7,No
2016/11/25,23:40,0.397,0.233,0.398,0.373,0.360,0.193,0.167,north,9.3,No
2016/11/25,23:50,0.398,0.233,0.399,0.375,0.360,0.194,0.167,north,10.9,No
